Home   Weather   49°54'N, 97°12'W   Past weeks
Flag for Canada

Past Weather in 49°54'N, 97°12'W, Canada — Yesterday and Last 2 Weeks

Now
40 °F

Quite cool.


Feels Like: 40 °F
Forecast: N/A
Wind: 1 mph from Southwest

Location: Winnipeg The Forks Man

Current Time: Oct 14, 2019 at 6:32:59 pm

Latest Report: Oct 14, 2019 at 5:00 pm


Visibility: N/A

Pressure: 29.90 "Hg

Humidity: 70%

Dew Point: 31 °F

Location of 49°54'N, 97°12'WLocation

Past Weather in 49°54'N, 97°12'W — Graph

°F

49°54'N, 97°12'W Temperature Yesterday

Maximum temperature yesterday: 38 °F (at 4:00 pm)
Minimum temperature yesterday: 33 °F (at 8:00 am)
Average temperature yesterday: 35 °F

High & Low Weather Summary for the Past Weeks

 TemperatureHumidityPressure
High66 °F (Oct 7, 4:00 pm)100% (Oct 10, 1:00 pm)30.40 "Hg (Oct 10, 1:00 pm)
Low31 °F (Oct 11, 8:00 am)31% (Oct 7, 5:00 pm)29.36 "Hg (Oct 12, 12:00 am)
Average42 °F82%29.91 "Hg
* Reported Sep 29 5:00 pm — Oct 14 5:00 pm, 49°54'N, 97°12'W. Weather by CustomWeather, © 2019

Note: Actual official high and low records may vary slightly from our data, if they occured in-between our weather recording intervals... More about our weather records

Advertising

49°54'N, 97°12'W Weather History for the Previous 24 Hours

Scroll right to see more
 ConditionsComfort  
Time TempWeatherWind HumidityBarometerVisibility
5:00 pm
Mon, Oct 14
40 °FQuite cool.1 mph70%29.90 "HgN/A
4:00 pm41 °FQuite cool.3 mph70%29.90 "HgN/A
3:00 pm40 °FQuite cool.3 mph68%29.91 "HgN/A
2:00 pm39 °FChilly.6 mph72%29.91 "HgN/A
1:00 pm38 °FChilly.5 mph74%29.91 "HgN/A
12:00 pm38 °FChilly.3 mph74%29.91 "HgN/A
11:00 am37 °FChilly.2 mph80%29.92 "HgN/A
10:00 am35 °FChilly.3 mph84%29.92 "HgN/A
9:00 am34 °FChilly.2 mph95%29.91 "HgN/A
8:00 am34 °FChilly.2 mph97%29.90 "HgN/A
7:00 am34 °FChilly.3 mph90%29.90 "HgN/A
6:00 am34 °FChilly.2 mph89%29.89 "HgN/A
5:00 am35 °FChilly.3 mph88%29.89 "HgN/A
4:00 am34 °FChilly.2 mph89%29.89 "HgN/A
3:00 am35 °FChilly.2 mph89%29.89 "HgN/A
2:00 am35 °FChilly.3 mph88%29.88 "HgN/A
1:00 am35 °FChilly.3 mph88%29.88 "HgN/A
12:00 am35 °FChilly.3 mph92%29.89 "HgN/A
11:00 pm
Sun, Oct 13
35 °FChilly.2 mph94%29.89 "HgN/A
10:00 pm35 °FChilly.3 mph88%29.89 "HgN/A
9:00 pm36 °FChilly.2 mph85%29.88 "HgN/A
8:00 pm36 °FChilly.2 mph86%29.88 "HgN/A
7:00 pm36 °FChilly.3 mph88%29.88 "HgN/A
6:00 pm37 °FChilly.2 mph86%29.87 "HgN/A
Weather by CustomWeather, © 2019

See weather overview